Christchurch (NZCH)

Aerodrome — Elev 123
New Zealand
S043.29.09.351 E172.32.16.287
Loading chart...

Current Weather

NZCH 230500Z AUTO 06008KT 9999 NCD 15/09 Q1008 NOSIG

Published 39 minutes ago

Airport Activity

Loading chart...
Loading chart...

Positions

CallsignRadio Name / Freq / Voice Room / TypeFrequencyVoice RoomType
NZCH-K_CTR Christchurch Control
129.400
nzch-k_ctr
129.400nzch-k_ctr
NZCH_APP Christchurch Approach
126.100
nzch_app
126.100nzch_app
NZCH_DEP Christchurch Approach
120.900
nzch_dep
120.900nzch_dep
NZCH_TWR Christchurch Tower
118.400
nzch_twr
118.400nzch_twr
NZCH_GND Christchurch Ground
121.900
nzch_gnd
121.900nzch_gnd
NZCH_DEL Christchurch Delivery
128.200
nzch_del
128.200nzch_del
NZCH_ATIS Christchurch ATIS
127.200
nzch_atis
127.200nzch_atis
UNICOM NZZC UNICOM
122.800
unicom_nzzc
122.800unicom_nzzc

Charts